Waarnemingen

Advertentie
Mijn weer
Pamplona/Noain, Spanje (8085): temperatuur & dauwpunt: 21.04.2018 10:00:00 - 27.04.2018 10:00:00 (CEST)Pamplona/Noain, Spanje (8085): windsnelheid: 21.04.2018 10:00:00 - 27.04.2018 10:00:00 (CEST)Pamplona/Noain, Spanje (8085): windrichting: 21.04.2018 10:00:00 - 27.04.2018 10:00:00 (CEST)Pamplona/Noain, Spanje (8085): luchtdruk: 21.04.2018 10:00:00 - 27.04.2018 10:00:00 (CEST)Pamplona/Noain, Spanje (8085): zicht: 21.04.2018 10:00:00 - 27.04.2018 10:00:00 (CEST)
Datum & Tijd tt [°C] td [°C] ff [km/u] ff [kn] dd ppp [hPa] vv [km]
27.04.2018 10:00:00 13,6 7,4 5 3 Z 1014,4 29
27.04.2018 09:00:00 10,5 7,2 2 1 - 1014,7 10
27.04.2018 08:00:00 7,9 7,6 0 0 N 1014,8 10
27.04.2018 07:00:00 7,4 7,3 2 1 - 1014,5 10
27.04.2018 06:00:00 7,1 7,0 5 3 W 1014,4 25
27.04.2018 05:00:00 6,0 5,6 2 1 ZZW 1015,1 19
27.04.2018 04:00:00 5,6 4,6 5 3 Z 1015,0 10
27.04.2018 03:00:00 6,4 5,2 0 0 N 1015,5 10
27.04.2018 02:00:00 6,9 5,0 4 2 WZW 1015,9 23
27.04.2018 01:00:00 7,6 5,4 2 1 Z 1016,3 10
27.04.2018 00:00:00 8,3 5,6 0 0 N 1016,7 10
26.04.2018 23:00:00 9,4 5,8 4 2 WZW 1017,0 30
26.04.2018 22:00:00 10,5 6,1 5 3 NW 1016,9 10
26.04.2018 21:00:00 12,4 5,8 15 8 NW 1016,4 10
26.04.2018 20:00:00 14,4 5,7 22 12 NNW 1016,0 30
26.04.2018 19:00:00 16,1 6,1 22 12 NNW 1016,2 30
26.04.2018 18:00:00 15,9 6,4 26 14 NNW 1016,9 30
26.04.2018 17:00:00 17,0 7,1 29 16 NNW 1017,5 30
26.04.2018 16:00:00 17,1 7,4 28 15 NW 1018,2 10
26.04.2018 15:00:00 16,1 6,0 24 13 NW 1018,9 10
26.04.2018 14:00:00 15,8 6,0 26 14 NNW 1019,6 30
26.04.2018 13:00:00 15,2 6,9 21 11 NNW 1020,5 30
26.04.2018 12:00:00 14,0 6,4 22 12 NNW 1021,5 30
26.04.2018 11:00:00 12,1 5,1 24 13 NNW 1022,3 30
26.04.2018 10:00:00 10,7 4,2 24 13 NNW 1022,9 10
26.04.2018 09:00:00 10,1 4,9 22 12 N 1023,3 30
26.04.2018 08:00:00 10,0 5,8 21 11 N 1022,8 25
26.04.2018 07:00:00 10,1 6,2 26 14 NNW 1022,5 10
26.04.2018 06:00:00 10,3 6,3 24 13 NNW 1022,8 10
26.04.2018 05:00:00 10,5 7,2 21 11 N 1023,2 30
26.04.2018 04:00:00 10,7 7,9 21 11 NNW 1023,6 30
26.04.2018 03:00:00 10,9 8,3 24 13 NW 1023,9 10
26.04.2018 02:00:00 11,9 8,0 18 10 NNW 1024,2 10
26.04.2018 01:00:00 11,7 8,4 15 8 N 1024,3 30
26.04.2018 00:00:00 11,6 8,3 13 7 N 1024,3 30
25.04.2018 23:00:00 11,1 7,6 16 9 N 1024,4 30
25.04.2018 22:00:00 11,8 7,9 22 12 N 1024,1 30
25.04.2018 21:00:00 12,4 7,9 24 13 NNW 1023,4 10
25.04.2018 20:00:00 12,7 7,8 29 16 N 1022,6 25
25.04.2018 19:00:00 12,6 8,5 31 17 N 1022,4 30
25.04.2018 18:00:00 14,4 9,3 31 17 N 1021,2 30
25.04.2018 17:00:00 15,5 10,6 37 20 NNW 1020,9 10
25.04.2018 16:00:00 15,7 10,3 31 17 NW 1020,4 10
25.04.2018 15:00:00 17,8 11,3 31 17 N 1020,0 27
25.04.2018 14:00:00 18,8 11,8 29 16 N 1019,8 25
25.04.2018 13:00:00 19,2 11,4 22 12 NW 1020,0 10
25.04.2018 12:00:00 18,7 11,9 15 8 NNW 1020,3 25
25.04.2018 11:00:00 16,8 11,6 8 4 N 1021,0 20
25.04.2018 10:00:00 15,0 10,8 9 5 NNW 1021,5 10
25.04.2018 09:00:00 14,1 11,1 9 5 NNW 1021,4 10
25.04.2018 08:00:00 13,5 11,5 13 7 N 1020,5 9
25.04.2018 07:00:00 12,9 12,9 2 1 WZW 1019,7 12
25.04.2018 06:00:00 11,7 11,7 0 0 N 1019,5 9
25.04.2018 05:00:00 11,9 11,9 4 2 Z 1019,3 8
25.04.2018 04:00:00 12,1 11,9 5 3 Z 1019,2 8
25.04.2018 03:00:00 12,9 12,0 8 4 WNW 1019,0 7
25.04.2018 02:00:00 12,9 11,1 9 5 NW 1019,1 10
25.04.2018 01:00:00 13,4 10,0 0 0 N 1018,9 10
25.04.2018 00:00:00 14,9 10,5 5 3 ZZW 1018,6 17
24.04.2018 23:00:00 15,4 10,6 8 4 ZO 1018,3 25
24.04.2018 22:00:00 18,5 9,8 8 4 OZO 1017,1 21
24.04.2018 21:00:00 20,7 9,3 13 7 Z 1015,8 10
24.04.2018 20:00:00 23,4 11,9 13 7 ZZW 1015,1 10
24.04.2018 19:00:00 25,5 10,9 11 6 ZZW 1014,7 24
24.04.2018 18:00:00 25,9 11,3 13 7 ZZW 1014,9 10
24.04.2018 17:00:00 26,4 11,3 11 6 ZZW 1015,3 15
24.04.2018 16:00:00 26,2 11,8 8 4 ZZW 1016,1 9
24.04.2018 15:00:00 25,5 11,6 11 6 ZZW 1016,7 10
24.04.2018 14:00:00 23,7 12,9 4 2 WNW 1017,7 10
24.04.2018 13:00:00 22,3 13,4 2 1 ZO 1018,6 14
24.04.2018 12:00:00 18,8 12,5 4 2 NW 1019,8 10
24.04.2018 11:00:00 16,5 12,3 2 1 N 1020,6 8
24.04.2018 10:00:00 13,1 13,1 5 3 W 1021,2 4,0
24.04.2018 09:00:00 11,6 11,6 4 2 - 1021,4 3,4
24.04.2018 08:00:00 10,9 10,9 5 3 N 1021,2 2,5
24.04.2018 07:00:00 11,0 11,0 0 0 N 1020,8 4,0
24.04.2018 06:00:00 11,2 11,2 4 2 - 1020,8 4,5
24.04.2018 05:00:00 11,0 11,0 4 2 O 1021,1 8
24.04.2018 04:00:00 10,5 10,5 4 2 Z 1021,2 7
24.04.2018 03:00:00 10,7 10,7 4 2 Z 1021,3 7
24.04.2018 02:00:00 10,7 10,7 0 0 N 1021,7 6
24.04.2018 01:00:00 11,8 10,9 2 1 - 1021,7 8
24.04.2018 00:00:00 12,7 11,1 0 0 N 1021,5 11
23.04.2018 23:00:00 14,2 11,7 9 5 W 1021,2 15
23.04.2018 22:00:00 15,6 12,0 8 4 WNW 1020,1 18
23.04.2018 21:00:00 17,9 12,3 4 2 - 1018,7 10
23.04.2018 20:00:00 20,7 12,8 5 3 W 1017,9 20
23.04.2018 19:00:00 21,1 12,7 16 9 ZZW 1017,9 18
23.04.2018 18:00:00 22,6 12,6 16 9 ZZW 1017,6 21
23.04.2018 17:00:00 22,3 11,6 9 5 W 1017,8 30
23.04.2018 16:00:00 21,7 11,8 8 4 W 1018,3 25
23.04.2018 15:00:00 21,1 12,6 9 5 WNW 1018,9 16
23.04.2018 14:00:00 19,5 12,5 11 6 NW 1019,5 25
23.04.2018 13:00:00 19,2 12,3 8 4 WNW 1020,0 30
23.04.2018 12:00:00 17,7 11,9 11 6 NW 1020,4 19
23.04.2018 11:00:00 16,3 11,8 8 4 WNW 1020,7 15
23.04.2018 10:00:00 13,5 10,7 5 3 WNW 1021,0 10
23.04.2018 09:00:00 10,9 10,1 4 2 NW 1020,9 10
23.04.2018 08:00:00 8,7 8,4 4 2 OZO 1020,7 15
23.04.2018 07:00:00 8,0 6,8 0 0 N 1020,4 11
23.04.2018 06:00:00 8,6 7,4 2 1 WZW 1020,3 10
23.04.2018 05:00:00 9,3 8,1 5 3 Z 1020,3 21
23.04.2018 04:00:00 10,3 8,6 5 3 ZZO 1020,0 19
23.04.2018 03:00:00 10,7 9,0 5 3 ZZO 1020,1 17
23.04.2018 02:00:00 11,6 9,6 0 0 N 1019,7 10
23.04.2018 01:00:00 12,8 10,3 4 2 - 1018,9 10
23.04.2018 00:00:00 13,7 10,7 4 2 W 1018,6 22
22.04.2018 23:00:00 15,2 11,3 4 2 W 1018,6 15
22.04.2018 22:00:00 16,5 11,8 9 5 OZO 1017,3 10
22.04.2018 21:00:00 18,5 10,4 9 5 ZZW 1016,2 22
22.04.2018 20:00:00 19,3 10,2 15 8 Z 1015,4 20
22.04.2018 19:00:00 21,9 9,1 2 1 Z 1014,5 13
22.04.2018 18:00:00 22,8 9,7 5 3 NW 1014,3 18
22.04.2018 17:00:00 22,9 9,1 11 6 Z 1014,6 25
22.04.2018 16:00:00 21,4 10,6 9 5 Z 1015,3 10
22.04.2018 15:00:00 21,1 10,5 5 3 Z 1015,7 10
22.04.2018 14:00:00 21,4 10,8 8 4 ZZW 1016,2 15
22.04.2018 13:00:00 20,1 9,3 9 5 W 1017,0 20
22.04.2018 12:00:00 19,2 9,0 5 3 ONO 1017,3 18
22.04.2018 11:00:00 18,1 7,7 4 2 N 1017,9 20
22.04.2018 10:00:00 15,8 9,7 4 2 OZO 1018,3 14
22.04.2018 09:00:00 12,4 9,6 2 1 OZO 1019,0 10
22.04.2018 08:00:00 10,2 7,4 4 2 - 1018,6 10
22.04.2018 07:00:00 10,3 7,4 4 2 ZW 1018,4 15
22.04.2018 06:00:00 11,5 7,6 0 0 N 1018,1 10
22.04.2018 05:00:00 11,3 7,8 5 3 WNW 1018,6 18
22.04.2018 04:00:00 11,6 8,0 4 2 NNW 1018,3 15
22.04.2018 03:00:00 12,3 8,2 4 2 - 1018,8 10
22.04.2018 02:00:00 13,3 8,2 4 2 WNW 1018,9 17
22.04.2018 01:00:00 14,7 8,2 4 2 - 1018,3 10
22.04.2018 00:00:00 15,0 7,8 8 4 Z 1018,2 10
21.04.2018 23:00:00 15,8 7,9 4 2 ZW 1018,2 17
21.04.2018 22:00:00 16,9 7,7 0 0 N 1017,8 10
21.04.2018 21:00:00 17,1 9,0 8 4 ZZO 1017,1 20
21.04.2018 20:00:00 18,8 8,7 11 6 ZZW 1016,7 20
21.04.2018 19:00:00 20,1 9,3 11 6 ZZW 1016,5 25
21.04.2018 18:00:00 21,2 7,8 13 7 Z 1016,3 24
21.04.2018 17:00:00 22,5 7,4 22 12 Z 1016,4 17
21.04.2018 16:00:00 23,6 7,2 18 10 Z 1016,8 23
21.04.2018 15:00:00 23,4 9,0 24 13 Z 1017,3 10
21.04.2018 14:00:00 22,9 8,7 24 13 ZZW 1018,0 15
21.04.2018 13:00:00 21,8 8,9 22 12 ZZW 1018,6 15
21.04.2018 12:00:00 20,4 10,1 16 9 ZZW 1019,1 21
21.04.2018 11:00:00 19,1 8,8 11 6 Z 1019,6 10
21.04.2018 10:00:00 16,3 9,1 2 1 W 1020,1 10

tt = temperatuur
td = dauwpunt
ff = windsnelheid
dd = windrichting
ppp = luchtdruk
vv = zicht

Weerstations in de omgeving